Probability
0 3 23 32 32 39 35 39 29 39 39 45 48 55 52 61 55 65 52 65 61 68 68 65 61 58 55 55 61 55 55 55 58 65 61 61 58 58 61 45 32 32 55
3 13 29 39 32 42 35 32 29 35 32 35 42 42 45 52 58 55 52 58 61 61 61 52 45 52 48 39 39 45 52 48 48 45 45 52 58 58 52 52 35 32 48
10 13 13 39 39 39 39 32 29 32 29 29 32 42 35 45 55 55 42 45 45 52 55 48 48 45 35 35 32 45 45 48 48 52 45 29 45 52 48 48 42 35 39
10 13 13 35 35 32 35 39 29 26 26 26 35 39 32 39 39 35 35 39 45 45 45 45 39 35 35 39 45 39 39 35 35 26 13 13 23 45 42 45 42 35 39
10 16 23 32 39 32 35 39 39 19 23 29 29 29 29 29 42 32 35 35 42 45 39 42 42 42 32 39 35 39 26 32 29 13 6 3 3 32 42 39 42 39 39
16 16 23 39 35 35 35 39 35 39 23 23 26 29 29 35 35 35 32 35 42 32 23 26 32 26 29 32 32 26 23 19 10 3 0 0 6 29 32 39 39 39 35
13 13 26 39 39 35 35 35 32 39 35 35 29 29 32 35 35 32 26 32 23 19 16 16 19 19 16 16 19 13 19 19 6 3 0 0 13 32 39 39 42 42 29
13 13 23 32 39 39 32 26 26 29 29 29 26 26 26 26 23 23 26 19 13 16 16 16 13 13 13 6 10 13 16 13 0 0 0 0 13 26 26 29 26 23 29
6 10 10 19 26 29 35 26 26 26 32 32 29 26 26 23 23 16 16 13 16 10 10 10 10 10 13 10 10 13 13 13 0 0 3 3 13 19 19 26 26 26 29
6 10 10 6 13 13 16 26 23 23 26 26 26 23 23 19 16 10 13 10 10 10 13 10 10 10 10 10 10 10 10 3 0 0 3 6 19 19 23 26 23 19 23
0 3 3 3 3 3 10 19 23 19 23 16 16 19 10 3 3 3 13 16 16 13 6 6 6 6 0 3 3 3 3 0 0 0 3 16 16 16 16 13 19 19 19
0 0 0 0 0 0 3 3 0 0 3 0 3 0 0 0 0 0 6 10 0 0 0 3 6 0 0 0 3 0 0 0 0 0 6 16 16 13 16 16 16 19 16
0 0 0 0 0 0 0 0 0 0 0 0 0 0 0 0 0 0 0 0 0 0 0 0 0 0 0 0 0 0 0 0 0 0 3 16 16 13 13 16 16 13 13
0 0 0 0 0 0 0 0 0 0 0 0 0 0 0 0 0 0 0 0 0 0 0 0 0 0 0 0 0 0 0 0 0 0 0 10 16 13 13 13 13 13 16
0 0 0 0 0 0 0 0 0 0 0 0 0 0 0 0 0 0 0 0 0 0 0 0 0 0 0 0 0 0 0 0 0 0 0 6 13 13 10 10 10 13 13
0 0 0 0 0 0 0 0 0 0 0 0 0 0 0 0 0 0 0 0 0 0 0 0 0 0 0 0 0 0 0 0 0 0 0 0 3 10 10 6 6 10 10
0 0 0 0 0 0 0 0 0 0 0 0 0 0 0 0 0 0 0 0 0 0 0 0 0 0 0 0 0 0 0 0 0 0 0 0 0 6 10 3 6 6 6
0 0 0 0 0 0 0 0 0 0 0 0 0 0 0 0 0 0 0 0 0 0 0 0 0 0 0 0 0 0 0 0 0 0 0 0 0 0 0 3 3 6 6
0 0 0 0 0 0 0 0 0 0 0 0 0 0 0 0 0 0 0 0 0 0 0 0 0 0 0 0 0 0 0 0 0 0 0 0 0 0 0 0 0 3 6
0 0 0 0 0 0 0 0 0 0 0 0 0 0 0 0 0 0 0 0 0 0 0 0 0 0 0 0 0 0 0 0 0 0 0 0 0 0 0 0 0 0 3
0 0 0 0 0 0 0 0 0 0 0 0 0 0 0 0 0 0 0 0 0 0 0 0 0 0 0 0 0 0 0 0 0 0 0 0 0 0 0 0 0 0 0
3 0 0 0 0 0 0 0 0 0 0 0 0 0 0 0 0 0 0 0 0 0 0 0 0 0 0 0 0 0 0 0 0 0 0 0 0 0 0 0 0 0 0
3 3 3 0 0 0 0 0 0 0 0 0 0 0 0 0 0 0 0 0 0 0 0 0 0 0 0 0 0 0 0 0 0 0 0 0 0 0 0 0 0 0 0
3 3 0 0 0 0 0 0 0 0 0 0 0 0 0 0 0 0 0 0 0 0 0 0 0 0 0 0 0 0 0 0 0 0 0 0 0 0 0 0 0 0 0
3 3 3 0 0 0 0 0 0 0 0 0 0 0 0 0 0 0 0 0 0 0 0 0 0 0 0 0 0 0 0 0 0 0 0 0 0 0 0 0 0 0 0
3 3 0 0 0 0 0 0 0 0 0 0 0 0 0 0 0 0 0 0 0 0 0 0 0 0 0 0 0 0 0 0 0 0 0 0 0 0 0 0 0 0 0
Height
5861 5860 5859 5858 5856 5853 5851 5853 5855 5856 5857 5859 5859 5860 5861 5862 5864 5864 5865 5866 5867 5867 5868 5868 5869 5869 5868 5868 5868 5868 5869 5870 5870 5870 5870 5870 5871 5872 5872 5873 5873 5873 5873
5860 5860 5859 5859 5858 5856 5854 5854 5855 5856 5856 5856 5858 5860 5861 5862 5863 5864 5864 5865 5866 5867 5867 5868 5868 5868 5868 5868 5868 5868 5869 5869 5869 5869 5869 5869 5870 5870 5871 5872 5872 5872 5872
5860 5860 5860 5859 5858 5857 5856 5856 5855 5854 5852 5853 5857 5859 5860 5862 5863 5863 5864 5865 5865 5866 5866 5867 5867 5867 5867 5867 5867 5867 5867 5868 5867 5867 5867 5867 5868 5869 5870 5870 5870 5870 5870
5860 5860 5860 5859 5859 5858 5857 5857 5855 5852 5850 5852 5856 5858 5860 5861 5862 5863 5863 5864 5864 5865 5865 5866 5866 5866 5866 5866 5866 5866 5866 5866 5867 5867 5867 5867 5867 5868 5868 5869 5869 5869 5869
5859 5860 5859 5859 5859 5858 5858 5857 5856 5854 5853 5854 5856 5858 5860 5861 5861 5862 5862 5863 5863 5864 5864 5865 5865 5865 5865 5865 5865 5865 5865 5865 5866 5866 5866 5866 5866 5866 5867 5867 5867 5867 5867
5859 5859 5859 5859 5858 5858 5858 5857 5857 5856 5856 5856 5857 5858 5859 5860 5861 5861 5861 5862 5862 5863 5863 5863 5863 5864 5864 5864 5864 5864 5864 5864 5864 5864 5864 5864 5865 5865 5865 5865 5865 5865 5865
5858 5858 5858 5858 5858 5858 5858 5857 5857 5856 5857 5857 5857 5858 5858 5859 5860 5860 5860 5861 5861 5861 5862 5862 5862 5862 5862 5862 5863 5863 5863 5863 5863 5863 5863 5863 5863 5863 5863 5863 5863 5863 5863
5857 5857 5857 5857 5857 5857 5857 5857 5857 5857 5857 5857 5857 5857 5857 5858 5858 5859 5859 5859 5860 5860 5860 5860 5860 5860 5860 5861 5861 5861 5861 5861 5861 5861 5861 5861 5861 5861 5861 5861 5861 5861 5861
5856 5856 5856 5856 5856 5856 5856 5856 5856 5856 5856 5856 5856 5856 5856 5857 5857 5858 5858 5858 5858 5859 5859 5859 5858 5858 5859 5859 5859 5859 5859 5859 5859 5859 5859 5859 5859 5859 5859 5859 5859 5859 5859
5855 5855 5855 5855 5855 5855 5855 5855 5855 5855 5855 5855 5855 5855 5855 5856 5856 5856 5857 5857 5857 5857 5857 5857 5857 5857 5857 5857 5857 5857 5857 5857 5857 5857 5857 5856 5856 5856 5856 5856 5856 5856 5856
5854 5854 5854 5854 5854 5854 5854 5854 5854 5854 5854 5854 5854 5854 5854 5854 5854 5855 5855 5855 5855 5855 5855 5855 5855 5855 5855 5855 5855 5855 5855 5855 5854 5854 5854 5854 5854 5854 5854 5854 5854 5853 5853
5852 5852 5853 5853 5853 5853 5853 5853 5853 5853 5853 5852 5852 5853 5853 5853 5853 5853 5853 5853 5853 5853 5853 5853 5853 5853 5853 5853 5853 5853 5853 5852 5852 5852 5852 5852 5852 5851 5851 5851 5851 5851 5851
5851 5851 5851 5851 5852 5852 5852 5851 5851 5851 5851 5851 5851 5851 5851 5851 5851 5851 5851 5851 5851 5851 5851 5851 5851 5851 5851 5851 5850 5850 5850 5850 5850 5850 5850 5850 5849 5849 5849 5849 5849 5848 5848
5850 5850 5850 5850 5850 5850 5850 5850 5850 5850 5850 5850 5850 5849 5849 5849 5849 5848 5848 5848 5848 5848 5848 5848 5849 5848 5848 5848 5848 5848 5848 5848 5848 5848 5847 5847 5847 5847 5846 5846 5846 5846 5845
5849 5849 5849 5849 5849 5849 5849 5849 5848 5848 5848 5848 5848 5847 5847 5847 5847 5846 5846 5846 5846 5846 5846 5846 5846 5846 5846 5846 5846 5846 5846 5846 5845 5845 5845 5845 5845 5844 5844 5844 5843 5843 5842
5847 5847 5847 5847 5847 5848 5847 5847 5847 5846 5846 5846 5845 5845 5845 5845 5845 5844 5844 5844 5844 5844 5844 5844 5844 5844 5844 5844 5843 5843 5843 5843 5843 5843 5843 5842 5842 5842 5841 5841 5840 5840 5839
5846 5846 5846 5846 5846 5846 5846 5845 5845 5844 5844 5843 5843 5843 5843 5842 5842 5842 5842 5842 5842 5842 5841 5841 5842 5842 5842 5841 5841 5841 5840 5840 5840 5840 5840 5840 5839 5839 5838 5838 5837 5836 5836
5845 5845 5845 5845 5844 5844 5844 5843 5843 5842 5842 5842 5841 5841 5840 5840 5840 5840 5839 5839 5839 5839 5839 5839 5839 5839 5839 5839 5838 5838 5838 5838 5837 5837 5837 5837 5836 5836 5835 5835 5834 5833 5833
5843 5843 5843 5843 5843 5842 5842 5841 5841 5840 5840 5840 5839 5838 5838 5837 5837 5837 5837 5837 5837 5837 5837 5837 5837 5837 5836 5836 5836 5835 5835 5835 5834 5834 5834 5833 5833 5832 5832 5831 5831 5830 5829
5841 5841 5840 5840 5840 5840 5840 5839 5839 5838 5838 5837 5837 5836 5835 5835 5835 5834 5834 5834 5834 5834 5834 5834 5834 5834 5834 5833 5833 5832 5832 5831 5831 5831 5830 5830 5829 5829 5828 5827 5827 5826 5826
5838 5838 5838 5838 5838 5838 5837 5837 5836 5835 5835 5834 5834 5833 5832 5832 5832 5831 5831 5831 5830 5830 5831 5831 5831 5831 5831 5830 5830 5830 5829 5829 5828 5827 5827 5826 5825 5825 5824 5823 5823 5822 5822
5836 5836 5836 5835 5835 5835 5834 5834 5833 5832 5832 5831 5831 5830 5829 5829 5828 5828 5828 5827 5827 5827 5827 5827 5827 5827 5827 5827 5827 5827 5826 5826 5825 5824 5823 5822 5821 5821 5820 5819 5819 5818 5817
5833 5833 5833 5833 5832 5832 5831 5831 5830 5830 5829 5828 5828 5827 5826 5825 5825 5824 5824 5824 5823 5823 5823 5824 5824 5824 5824 5824 5823 5823 5823 5822 5821 5820 5819 5818 5817 5816 5815 5815 5814 5813 5813
5830 5830 5829 5829 5829 5829 5828 5828 5827 5826 5826 5825 5824 5823 5822 5822 5821 5821 5820 5820 5819 5819 5819 5819 5820 5820 5820 5820 5819 5819 5819 5818 5817 5817 5815 5814 5813 5812 5811 5810 5809 5809 5808
5826 5826 5826 5825 5825 5825 5825 5824 5824 5823 5822 5821 5820 5820 5819 5819 5818 5817 5817 5816 5816 5815 5815 5815 5815 5815 5816 5815 5815 5815 5814 5813 5813 5812 5811 5810 5808 5807 5806 5806 5805 5804 5804
5823 5823 5822 5822 5822 5821 5821 5820 5820 5819 5818 5817 5817 5816 5816 5815 5814 5813 5813 5812 5811 5811 5811 5811 5811 5811 5811 5811 5811 5810 5810 5809 5808 5807 5806 5805 5804 5803 5802 5801 5800 5800 5800
Wind_Speed
1 2 3 3 4 5 3 1 1 1 1 2 2 2 3 3 3 3 3 3 3 3 4 4 4 4 4 4 4 5 5 6 7 7 7 7 7 7 7 7 6 7 7
1 2 2 3 3 3 3 2 1 1 0 1 2 1 2 3 3 3 4 4 4 4 5 5 4 4 4 4 4 4 5 5 6 6 7 8 7 7 7 8 7 7 7
1 2 2 2 2 2 2 2 2 2 2 2 2 1 1 2 3 4 4 4 5 5 5 6 5 5 5 4 4 5 5 5 6 6 6 6 6 6 7 8 8 8 7
3 3 2 2 2 2 2 2 3 3 1 2 2 2 2 2 3 4 4 5 5 5 6 7 7 7 7 7 7 7 7 7 7 7 7 7 6 7 7 8 8 8 8
4 4 3 3 3 3 3 3 3 3 1 1 3 3 3 4 4 4 4 5 6 6 6 7 8 8 8 8 8 7 8 8 8 8 7 7 7 7 8 9 9 9 9
4 4 4 3 3 3 3 4 4 3 2 2 3 4 4 4 4 5 5 5 6 6 7 8 8 9 9 8 8 8 8 8 8 8 7 7 7 7 8 9 9 9 10
4 4 4 4 4 4 4 4 4 3 3 3 3 4 4 5 5 5 5 6 6 7 8 9 9 9 8 8 9 9 9 9 9 9 9 8 8 9 10 10 10 11 11
4 4 4 4 4 5 5 5 5 4 4 4 4 4 5 6 5 6 6 6 6 7 7 8 9 8 8 9 9 10 10 9 10 10 10 10 10 10 11 11 11 12 11
5 4 4 4 4 5 5 5 5 5 5 5 5 5 6 6 6 6 7 7 8 8 8 8 9 9 9 9 9 9 9 10 10 11 10 10 10 10 11 11 12 12 12
5 5 5 5 5 5 6 5 5 5 5 5 5 6 6 6 6 7 8 8 8 9 9 9 9 9 9 9 9 9 9 10 10 10 11 11 11 11 11 11 12 12 12
5 6 6 6 6 6 6 6 6 6 6 6 6 6 7 7 8 8 8 9 9 9 9 9 10 10 10 10 10 10 10 10 10 10 10 10 11 11 11 12 12 12 13
5 6 6 6 6 6 6 6 5 5 5 6 6 6 7 7 8 9 10 10 10 10 10 10 11 11 11 11 10 10 10 10 10 10 10 10 11 11 11 11 12 12 12
6 5 5 6 6 6 6 6 5 5 5 6 6 7 8 9 9 10 10 10 10 10 10 11 11 11 11 11 11 10 10 10 11 11 11 11 11 10 11 11 11 11 12
5 5 5 5 5 5 5 5 6 6 7 7 7 8 9 9 10 11 11 10 10 10 10 10 11 10 10 10 10 10 10 10 10 11 11 11 11 11 11 12 12 12 13
5 4 5 5 5 5 5 5 6 6 7 8 8 8 9 10 10 11 10 11 11 10 10 11 10 10 10 10 10 11 10 11 10 10 10 10 10 11 11 12 13 14 14
5 5 5 5 5 6 6 6 7 7 7 8 8 9 9 10 10 10 10 10 11 11 11 11 10 10 10 11 11 11 11 11 11 11 11 11 11 12 12 12 13 14 15
5 5 5 5 5 6 7 7 8 8 8 8 8 9 9 10 10 10 10 9 10 10 11 11 10 10 10 11 11 12 11 11 11 12 12 12 12 12 13 13 13 14 14
6 6 6 6 6 6 7 7 8 8 8 8 9 9 9 10 10 10 10 10 10 10 10 10 10 11 11 11 11 11 11 11 12 12 12 13 13 14 14 14 14 14 14
7 7 7 7 7 7 7 7 8 8 8 9 9 10 10 10 10 10 11 11 11 11 10 10 10 10 10 11 11 11 12 11 11 12 13 13 14 14 15 15 15 15 15
8 8 8 8 8 8 8 8 9 9 9 10 9 10 10 11 11 11 11 11 11 11 11 11 11 11 11 11 11 12 12 13 12 13 13 14 14 15 15 15 15 15 15
9 9 9 8 8 9 9 9 9 10 10 10 10 11 12 12 12 12 11 12 12 12 12 12 11 11 11 12 12 13 13 13 13 13 14 14 15 15 16 16 16 15 15
9 9 9 9 9 9 10 10 10 10 10 11 11 12 13 13 13 12 12 12 12 12 12 12 12 12 12 12 13 13 13 13 13 14 15 15 15 15 16 16 16 16 16
10 11 11 10 10 10 11 11 11 11 11 12 12 13 13 12 12 13 12 12 12 13 13 12 12 13 13 13 13 13 13 13 14 14 15 15 15 16 16 16 16 16 15
11 12 12 12 12 12 12 12 12 12 13 13 13 13 13 12 12 13 13 13 13 14 14 13 13 13 13 14 14 15 15 15 15 15 16 16 16 16 16 16 16 15 15
12 12 12 12 12 12 12 13 13 13 13 13 13 12 12 13 13 14 14 14 14 14 15 14 14 14 14 15 15 16 16 17 17 17 17 17 16 16 16 16 15 15 15
12 12 12 12 12 12 13 13 13 14 14 14 13 13 13 13 14 15 15 16 15 15 15 15 15 16 15 16 16 17 17 17 18 17 17 17 16 16 16 16 16 15 15
Wind_Direction
21 10 8 1 2 14 30 80 153 97 142 166 165 175 171 178 194 197 201 210 224 238 248 259 269 273 276 281 280 267 266 268 275 272 268 262 261 256 251 254 256 256 258
344 349 354 3 6 28 46 56 69 30 268 192 181 183 188 191 204 220 218 234 246 247 250 257 268 270 272 274 277 272 274 276 278 277 268 265 257 254 256 258 260 263 260
282 306 337 3 5 16 40 33 10 333 280 231 197 177 172 210 222 225 233 239 249 251 251 258 263 271 264 263 270 269 267 275 274 275 270 260 254 258 260 261 263 267 267
267 281 300 319 332 342 358 3 3 352 310 210 214 223 235 244 235 233 240 250 253 257 262 264 264 270 272 273 276 275 274 277 276 271 267 262 259 258 260 266 269 272 271
272 275 274 278 301 310 320 328 341 350 334 224 233 245 255 263 259 255 251 252 254 259 264 267 265 268 268 272 276 276 277 275 272 270 269 266 266 265 264 267 269 271 272
275 274 267 263 272 284 297 306 310 318 310 265 244 248 254 259 269 270 265 263 257 259 265 270 269 269 267 267 270 274 277 277 274 272 271 269 270 270 269 271 274 279 279
270 272 268 265 265 271 278 287 297 295 294 284 266 261 256 260 264 265 268 270 269 265 269 271 275 274 269 268 269 275 282 284 282 277 272 270 271 272 273 273 273 276 278
268 275 269 271 268 270 275 278 278 277 279 280 277 264 265 266 269 267 266 271 275 275 271 271 278 276 271 274 278 282 282 282 279 272 269 269 270 271 272 274 272 274 276
263 265 261 269 270 273 277 277 273 274 274 272 271 264 265 265 262 260 265 271 275 276 277 277 277 280 277 275 275 278 279 280 277 272 270 268 268 269 271 273 273 273 275
258 251 257 263 270 275 277 277 276 276 275 270 266 265 265 262 260 258 264 268 275 276 278 280 279 282 280 276 276 276 278 279 277 271 270 269 268 268 269 272 275 274 273
257 256 261 265 270 273 275 274 271 272 272 269 266 266 266 268 267 265 265 265 267 271 276 277 277 278 278 277 280 280 281 282 278 275 273 270 268 269 271 273 272 274 274
259 255 257 259 262 266 271 274 274 271 270 268 270 268 269 271 271 270 270 272 273 276 274 275 278 278 277 277 276 277 280 281 278 275 274 275 276 273 273 273 271 271 274
263 265 259 255 259 262 266 270 268 271 274 275 274 274 276 273 273 276 275 275 274 276 274 274 278 277 278 279 276 277 278 278 278 274 273 274 278 281 279 275 274 275 275
264 261 264 262 263 265 270 276 275 275 275 276 276 278 280 279 277 276 275 277 277 278 274 272 276 278 279 279 278 279 281 280 281 276 274 273 276 280 280 281 281 281 280
267 264 263 264 263 263 268 276 280 281 280 274 276 279 281 281 278 277 274 274 275 276 275 272 273 275 276 277 278 278 280 281 281 278 279 277 280 281 282 281 284 285 284
264 263 261 261 264 267 275 281 281 282 281 276 277 278 277 279 281 281 276 274 275 277 278 276 275 275 276 277 277 281 286 285 282 279 280 281 282 282 283 284 287 289 287
261 263 264 265 270 274 278 279 280 281 280 279 281 281 281 280 281 279 277 275 276 277 279 280 278 275 274 277 278 279 282 282 280 278 278 278 278 279 282 286 289 289 290
261 264 266 268 271 275 279 281 282 281 281 283 286 286 286 284 282 276 275 275 276 277 278 278 276 274 274 276 279 279 280 283 280 278 278 278 277 278 282 286 288 287 288
263 267 268 270 271 273 278 280 281 280 282 285 287 287 286 286 283 278 276 275 276 276 277 278 276 274 275 277 279 279 280 283 283 282 283 282 280 280 281 283 286 287 287
265 268 268 270 272 274 278 281 282 280 283 285 287 286 286 286 282 278 279 279 276 274 275 277 278 276 275 277 278 279 279 281 283 284 285 285 284 283 283 283 285 286 286
268 268 270 272 275 277 281 284 285 283 283 283 285 285 286 288 288 280 277 277 275 274 274 275 276 277 277 277 278 279 280 282 281 284 285 284 284 285 284 284 284 284 285
268 269 271 272 276 279 280 283 289 289 286 286 287 288 288 287 287 283 278 274 275 275 275 274 275 274 276 276 278 280 281 282 283 284 284 285 286 286 285 285 284 283 284
270 269 269 271 274 276 279 282 287 289 288 287 285 287 287 284 282 282 280 276 274 273 273 274 274 273 274 277 278 280 281 282 285 287 289 287 287 286 286 285 284 283 282
269 269 268 271 274 277 280 283 285 287 289 288 285 284 284 283 283 284 281 279 276 274 272 270 271 272 274 276 278 280 282 283 284 285 287 288 286 285 285 284 283 282 280
269 270 270 273 274 276 279 283 286 288 290 289 288 287 285 284 285 287 285 283 279 276 273 269 268 270 274 276 278 279 281 282 285 286 286 285 285 284 284 285 284 280 279
270 270 271 275 275 278 281 283 285 288 288 287 286 285 286 288 286 288 287 282 279 274 273 271 270 270 273 276 277 278 280 281 284 285 284 282 281 281 282 283 283 279 278